Weather reports worldwide

Advertisment
Vignola, Italy (16137): temperature & dewpoint: 12.01.2020 12:00:00 - 18.01.2020 12:00:00 (CET)Vignola, Italy (16137): reduced air pressure: 12.01.2020 12:00:00 - 18.01.2020 12:00:00 (CET)Vignola, Italy (16137): precipitation: 12.01.2020 12:00:00 - 18.01.2020 12:00:00 (CET)
Date & Time tt [°C] td [°C] ppp [hPa] rr [mm]
18.01.2020 12:00:00 - - - -
18.01.2020 11:00:00 5,5 3,5 1024,4 2,2
18.01.2020 10:00:00 5,5 3,3 1023,9 3,4
18.01.2020 09:00:00 5,7 3,9 1023,7 2,0
18.01.2020 08:00:00 5,7 4,0 1022,9 2,6
18.01.2020 07:00:00 5,8 4,1 1022,6 2,0
18.01.2020 06:00:00 5,9 4,1 1021,9 1,6
18.01.2020 05:00:00 6,1 3,8 1021,6 0,2
18.01.2020 04:00:00 5,8 3,1 1021,4 0,0
18.01.2020 03:00:00 6,1 3,1 1021,1 0,0
18.01.2020 02:00:00 5,6 2,8 1021,1 0,0
18.01.2020 01:00:00 5,4 2,2 1021,1 0,0
18.01.2020 00:00:00 5,8 2,4 1021,6 0,0
17.01.2020 23:00:00 6,6 3,0 1022,4 0,0
17.01.2020 22:00:00 6,3 2,9 1023,0 0,0
17.01.2020 21:00:00 6,5 2,9 1023,5 0,0
17.01.2020 20:00:00 6,6 2,9 1024,1 0,0
17.01.2020 19:00:00 6,5 2,6 1024,2 0,0
17.01.2020 18:00:00 7,2 2,5 1024,3 0,0
17.01.2020 17:00:00 7,8 2,3 1024,1 -
17.01.2020 16:00:00 9,3 2,4 1024,2 0,0
17.01.2020 15:00:00 9,8 2,2 1024,3 0,0
17.01.2020 14:00:00 10,3 2,2 1024,6 0,0
17.01.2020 13:00:00 10,9 2,2 1025,3 0,0
17.01.2020 12:00:00 10,4 2,5 1026,4 0,0
17.01.2020 11:00:00 9,5 1,9 1027,0 0,0
17.01.2020 10:00:00 7,7 2,0 1027,1 0,2
17.01.2020 09:00:00 3,2 0,6 1027,3 0,0
17.01.2020 08:00:00 1,1 -0,5 1027,3 0,0
17.01.2020 07:00:00 1,1 -0,4 1027,5 0,0
17.01.2020 06:00:00 0,2 -1,1 1027,6 0,0
17.01.2020 05:00:00 0,0 -1,3 1027,9 0,0
17.01.2020 04:00:00 0,3 -1,3 1028,5 0,0
17.01.2020 03:00:00 1,6 -0,2 1029,0 0,0
17.01.2020 02:00:00 2,0 0,1 1029,4 0,0
17.01.2020 01:00:00 2,1 0,6 1029,8 0,0
17.01.2020 00:00:00 1,6 0,1 1030,3 0,0
16.01.2020 23:00:00 1,5 0,0 1030,7 0,0
16.01.2020 22:00:00 1,8 0,3 1030,9 0,0
16.01.2020 21:00:00 2,1 0,6 1031,3 0,0
16.01.2020 20:00:00 2,1 0,5 1031,5 0,0
16.01.2020 19:00:00 2,1 0,3 1031,4 0,0
16.01.2020 18:00:00 4,0 1,9 1031,0 0,0
16.01.2020 17:00:00 5,3 2,0 1030,8 0,0
16.01.2020 16:00:00 7,8 2,9 1030,7 0,0
16.01.2020 15:00:00 8,9 3,1 1031,0 0,0
16.01.2020 14:00:00 9,1 2,6 1031,4 0,0
16.01.2020 13:00:00 9,3 2,8 1031,8 0,0
16.01.2020 12:00:00 8,2 3,8 1032,5 0,0
16.01.2020 11:00:00 6,9 3,0 1033,1 0,0
16.01.2020 10:00:00 6,2 2,5 1033,0 0,0
16.01.2020 09:00:00 5,2 2,0 1032,6 0,0
16.01.2020 08:00:00 2,6 0,8 1032,3 0,0
16.01.2020 07:00:00 1,5 -0,6 1031,6 0,0
16.01.2020 06:00:00 1,9 -0,2 - -
16.01.2020 05:00:00 3,7 0,7 1030,7 0,0
16.01.2020 04:00:00 4,1 1,5 1030,5 0,0
16.01.2020 03:00:00 4,2 1,7 1030,6 0,0
16.01.2020 02:00:00 4,2 2,1 1030,4 0,0
16.01.2020 01:00:00 4,3 2,3 1030,5 0,0
16.01.2020 00:00:00 3,9 1,9 1030,5 0,0
15.01.2020 23:00:00 4,2 2,1 1030,2 0,0
15.01.2020 22:00:00 4,6 - - -
15.01.2020 21:00:00 4,9 2,4 1030,0 0,0
15.01.2020 20:00:00 5,1 2,5 1029,9 0,0
15.01.2020 19:00:00 5,6 2,4 1029,9 0,0
15.01.2020 18:00:00 5,9 2,5 1029,8 0,0
15.01.2020 17:00:00 6,5 2,6 1029,2 0,0
15.01.2020 16:00:00 6,9 2,4 1029,2 0,0
15.01.2020 15:00:00 7,1 2,2 1029,1 0,0
15.01.2020 14:00:00 7,1 2,0 1029,1 0,0
15.01.2020 13:00:00 6,8 1,9 1029,7 0,0
15.01.2020 12:00:00 6,2 2,6 1030,2 0,0
15.01.2020 11:00:00 6,2 2,8 1030,3 0,0
15.01.2020 10:00:00 4,8 2,8 1030,0 0,0
15.01.2020 09:00:00 4,0 2,2 1030,0 0,0
15.01.2020 08:00:00 3,3 1,3 1029,9 -
15.01.2020 07:00:00 3,6 - 1029,7 0,0
15.01.2020 06:00:00 3,5 1,5 1029,3 0,0
15.01.2020 05:00:00 3,5 1,5 1029,0 0,0
15.01.2020 04:00:00 3,6 1,3 1028,8 0,0
15.01.2020 03:00:00 3,5 1,5 1029,3 0,0
15.01.2020 02:00:00 3,6 1,6 1029,5 0,0
15.01.2020 01:00:00 3,7 1,7 1029,2 0,0
15.01.2020 00:00:00 3,6 1,6 1029,2 0,0
14.01.2020 23:00:00 3,7 1,7 1029,1 0,0
14.01.2020 22:00:00 3,2 1,4 1028,9 0,0
14.01.2020 21:00:00 1,9 0,0 1028,5 0,0
14.01.2020 20:00:00 3,2 0,4 1028,2 0,0
14.01.2020 19:00:00 4,7 1,7 1028,1 0,0
14.01.2020 18:00:00 5,0 1,5 - 0,0
14.01.2020 17:00:00 5,6 1,7 1027,4 0,0
14.01.2020 16:00:00 6,1 1,4 1026,8 0,0
14.01.2020 15:00:00 6,7 2,0 1026,6 0,0
14.01.2020 14:00:00 7,7 1,7 1026,2 0,0
14.01.2020 13:00:00 7,7 0,4 1026,2 0,0
14.01.2020 12:00:00 6,5 0,2 1026,7 0,0
14.01.2020 11:00:00 3,9 0,2 1027,5 0,0
14.01.2020 10:00:00 2,6 -0,3 1027,3 0,0
14.01.2020 09:00:00 2,1 -1,5 1026,8 0,0
14.01.2020 08:00:00 0,5 -2,7 1026,5 0,0
14.01.2020 07:00:00 -0,2 -1,8 1026,4 0,0
14.01.2020 06:00:00 -1,2 -2,6 1026,2 0,0
14.01.2020 05:00:00 -1,2 -2,9 1025,9 0,0
14.01.2020 04:00:00 -0,8 -2,5 1025,7 0,0
14.01.2020 03:00:00 -1,4 -3,9 1025,8 0,0
14.01.2020 02:00:00 1,1 -3,0 1025,6 0,0
14.01.2020 01:00:00 -1,3 -3,0 1025,7 0,0
14.01.2020 00:00:00 -2,2 -3,6 1026,1 0,0
13.01.2020 23:00:00 -1,9 -3,3 1026,3 0,0
13.01.2020 22:00:00 -1,4 -3,0 1026,2 0,0
13.01.2020 21:00:00 -0,6 -2,2 1026,4 0,0
13.01.2020 20:00:00 -0,7 -2,4 1026,2 0,0
13.01.2020 19:00:00 0,0 -2,1 1026,1 0,0
13.01.2020 18:00:00 1,2 -1,4 1025,8 0,0
13.01.2020 17:00:00 4,6 -0,6 1025,3 0,0
13.01.2020 16:00:00 6,5 0,2 1025,6 0,0
13.01.2020 15:00:00 7,5 0,7 1026,2 0,0
13.01.2020 14:00:00 7,7 0,4 1026,6 0,0
13.01.2020 13:00:00 7,1 -0,6 1027,2 0,0
13.01.2020 12:00:00 5,8 -0,5 1028,2 0,0
13.01.2020 11:00:00 4,4 -1,0 1028,6 0,0
13.01.2020 10:00:00 2,7 - - 0,2
13.01.2020 09:00:00 0,0 -4,1 1028,2 0,0
13.01.2020 08:00:00 -2,9 -5,4 1028,3 0,0
13.01.2020 07:00:00 -2,8 -5,1 1028,1 0,0
13.01.2020 06:00:00 -2,9 -5,2 1027,7 0,0
13.01.2020 05:00:00 -1,8 -5,0 1027,6 0,0
13.01.2020 04:00:00 -1,5 -4,5 1028,0 0,0
13.01.2020 03:00:00 -1,4 -4,4 1028,1 0,0
13.01.2020 02:00:00 -1,4 -4,1 1027,6 0,0
13.01.2020 01:00:00 -1,6 -3,9 1027,9 0,0
13.01.2020 00:00:00 -0,9 -3,1 1028,3 0,0
12.01.2020 23:00:00 -0,9 -2,9 1028,3 0,0
12.01.2020 22:00:00 -0,1 -2,0 1028,1 0,0
12.01.2020 21:00:00 -0,2 -2,3 1028,0 0,0
12.01.2020 20:00:00 0,3 -1,9 1028,0 0,0
12.01.2020 19:00:00 1,1 - - 0,0
12.01.2020 18:00:00 2,9 -0,7 1027,4 0,0
12.01.2020 17:00:00 6,8 0,0 1027,0 0,0
12.01.2020 16:00:00 10,3 0,9 1027,2 0,0
12.01.2020 15:00:00 9,6 1,0 1027,7 0,0
12.01.2020 14:00:00 9,7 0,6 1027,9 0,0
12.01.2020 13:00:00 8,9 1,1 1028,7 0,0
12.01.2020 12:00:00 8,1 0,3 1029,8 0,0

tt = temperature
td = dewpoint
ppp = reduced air pressure
rr = precipitation

Next stations